Granite Falls, MN

1:51 AM CST on December 14, 2019 (GMT -0600)
Granite Falls

Weather History for KGDB - October, 2019

Change the Weather History Date:

Saturday, October 19, 2019

  Actual Average (KMVE) Record (KMVE)
Temperature  
Mean Temperature 52 °F -  
Max Temperature 66 °F 57 °F 87 °F (2000)
Min Temperature 39 °F 33 °F 14 °F (1972)
Degree Days  
Heating Degree Days 12    
Growing Degree Days 2 (Base 50)    
Moisture  
Dew Point 39 °F    
Average Humidity 65    
Maximum Humidity 88    
Minimum Humidity 29    
Precipitation  
Precipitation 0.00 in - - ()
Sea Level Pressure  
Sea Level Pressure 29.70 in    
Wind  
Wind Speed 7 mph (WSW)    
Max Wind Speed 15 mph    
Max Gust Speed 26 mph    
Visibility 9 miles    
Events      
Averages and records for this station are not official NWS values.
T = Trace of Precipitation, MM = Missing Value Source: NWS Daily Summary

Daily Weather History Graph

Daily Weather History Graph

Search for Another Location

Airport or City:

Astronomy

Oct. 19, 2019 Rise Set
Actual Time 7:42 AM CDT 6:31 PM CDT
Civil Twilight 7:12 AM CDT 7:00 PM CDT
Nautical Twilight 6:38 AM CDT 7:34 PM CDT
Astronomical Twilight 6:05 AM CDT 8:08 PM CDT
Moon 10:30 PM CDT (10/19) 1:26 PM CDT (10/19)
Length of Visible Light 11h 47m
Length of Day
10h 48m
Waning Gibbous, 69% of the Moon is Illuminated
Oct 19
Waning Gibbous
Oct 21
Last Quarter
Oct 27
New
Nov 4
First Quarter
Nov 12
Full

Hourly Weather History & Observations

Time (CDT) Temp. Windchill Dew Point Humidity Pressure Visibility Wind Dir Wind Speed Gust Speed Precip Events Conditions
12:16 AM 50.0 °F - 45.7 °F 85% 29.60 in 10.0 mi WSW 5.8 mph - N/A   Clear
12:35 AM 48.4 °F - 45.0 °F 88% 29.61 in 10.0 mi SW 8.1 mph - N/A   Clear
12:55 AM 48.6 °F - 44.8 °F 87% 29.62 in 10.0 mi WSW 8.1 mph - N/A   Clear
12:56 AM 48.7 °F - 45.0 °F 87% 29.62 in 10.0 mi WSW 8.1 mph - N/A   Clear
1:15 AM 48.0 °F - 44.2 °F 87% 29.62 in 10.0 mi WSW 9.2 mph - N/A   Clear
1:20 AM 48.2 °F - 44.4 °F 87% 29.62 in 10.0 mi WSW 8.1 mph - N/A   Clear
1:37 AM 48.7 °F - 44.6 °F 86% 29.63 in 10.0 mi West 8.1 mph - N/A   Clear
1:55 AM 48.7 °F - 44.6 °F 86% 29.64 in 10.0 mi West 6.9 mph - N/A   Mostly Cloudy
2:15 AM 49.3 °F - 44.6 °F 84% 29.64 in 10.0 mi West 8.1 mph - N/A   Scattered Clouds
2:16 AM 49.5 °F - 44.6 °F 83% 29.64 in 10.0 mi West 8.1 mph - N/A   Scattered Clouds
2:35 AM 50.5 °F - 44.6 °F 80% 29.65 in 10.0 mi West 8.1 mph - N/A   Scattered Clouds
2:36 AM 50.5 °F - 44.4 °F 80% 29.65 in 10.0 mi West 8.1 mph - N/A   Scattered Clouds
2:58 AM 50.7 °F - 43.7 °F 77% 29.64 in 10.0 mi West 6.9 mph - N/A   Scattered Clouds
3:17 AM 50.5 °F - 43.9 °F 78% 29.64 in 10.0 mi West 6.9 mph - N/A   Scattered Clouds
3:36 AM 50.7 °F - 43.7 °F 77% 29.64 in 10.0 mi West 8.1 mph - N/A   Mostly Cloudy
3:55 AM 50.9 °F - 43.7 °F 76% 29.65 in 10.0 mi West 8.1 mph - N/A   Overcast
3:56 AM 50.9 °F - 43.7 °F 76% 29.65 in 10.0 mi West 6.9 mph - N/A   Overcast
4:15 AM 50.5 °F - 44.4 °F 80% 29.65 in 10.0 mi West 6.9 mph - N/A   Overcast
4:37 AM 50.0 °F - 43.7 °F 79% 29.66 in 10.0 mi WSW 6.9 mph - N/A   Mostly Cloudy
5:15 AM 48.2 °F - 43.7 °F 84% 29.67 in 10.0 mi WSW 6.9 mph - N/A   Clear
5:16 AM 48.2 °F - 43.7 °F 84% 29.67 in 10.0 mi WSW 6.9 mph - N/A   Clear
5:35 AM 47.5 °F - 43.2 °F 85% 29.67 in 10.0 mi WSW 4.6 mph - N/A   Clear
5:36 AM 47.5 °F - 43.2 °F 85% 29.67 in 10.0 mi WSW 4.6 mph - N/A   Clear
5:59 AM 46.8 °F - 42.4 °F 85% 29.67 in 10.0 mi SW 5.8 mph - N/A   Clear
6:16 AM 48.6 °F - 42.8 °F 80% 29.68 in 10.0 mi SSW 5.8 mph - N/A   Clear
6:36 AM 49.1 °F - 42.8 °F 79% 29.68 in 10.0 mi SSW 5.8 mph - N/A   Clear
6:55 AM 48.4 °F - 42.4 °F 80% 29.68 in 10.0 mi SW 5.8 mph - N/A   Clear
7:15 AM 48.7 °F - 42.4 °F 79% 29.69 in 10.0 mi SW 6.9 mph - N/A   Clear
7:19 AM 48.7 °F - 42.4 °F 79% 29.69 in 10.0 mi SW 6.9 mph - N/A   Clear
7:38 AM 49.1 °F - 42.1 °F 77% 29.69 in 10.0 mi SW 6.9 mph - N/A   Clear
7:55 AM 46.8 °F - 41.5 °F 82% 29.70 in 10.0 mi SW 6.9 mph - N/A   Clear
8:15 AM 46.4 °F 42.9 °F 41.4 °F 83% 29.70 in 10.0 mi WSW 6.9 mph - N/A   Clear
8:16 AM 46.4 °F 42.9 °F 41.4 °F 83% 29.70 in 10.0 mi WSW 6.9 mph - N/A   Clear
8:35 AM 45.0 °F 41.2 °F 40.6 °F 85% 29.71 in 7.0 mi WSW 6.9 mph - N/A   Clear
8:36 AM 45.0 °F 41.2 °F 40.6 °F 85% 29.71 in 7.0 mi SW 6.9 mph - N/A   Clear
8:58 AM 45.5 °F 40.8 °F 40.6 °F 83% 29.71 in 7.0 mi WSW 9.2 mph - N/A   Clear
9:16 AM 49.1 °F - 41.9 °F 76% 29.71 in 10.0 mi WSW 6.9 mph - N/A   Clear
9:36 AM 51.6 °F - 41.9 °F 69% 29.71 in 7.0 mi WSW 6.9 mph - N/A   Clear
9:55 AM 54.0 °F - 42.4 °F 65% 29.72 in 10.0 mi WSW 8.1 mph - N/A   Clear
9:56 AM 54.1 °F - 42.4 °F 65% 29.72 in 10.0 mi WSW 8.1 mph - N/A   Clear
10:15 AM 55.9 °F - 42.3 °F 60% 29.72 in 10.0 mi WSW 4.6 mph - N/A   Clear
10:20 AM 56.3 °F - 42.1 °F 59% 29.72 in 10.0 mi West 6.9 mph - N/A   Clear
10:37 AM 57.0 °F - 40.8 °F 55% 29.73 in 7.0 mi West 8.1 mph - N/A   Clear
10:55 AM 58.5 °F - 40.6 °F 52% 29.73 in 7.0 mi WNW 5.8 mph - N/A   Clear
11:15 AM 59.9 °F - 41.0 °F 50% 29.73 in 10.0 mi West 9.2 mph - N/A   Clear
11:35 AM 60.6 °F - 39.4 °F 45% 29.73 in 10.0 mi West 9.2 mph - N/A   Clear
11:36 AM 60.6 °F - 39.6 °F 46% 29.73 in 10.0 mi West 10.4 mph - N/A   Clear
11:59 AM 61.7 °F - 39.4 °F 44% 29.73 in 10.0 mi West 6.9 mph - N/A   Clear
12:17 PM 62.8 °F - 39.2 °F 42% 29.72 in 7.0 mi WNW 9.2 mph - N/A   Clear
12:36 PM 63.0 °F - 40.1 °F 43% 29.72 in 10.0 mi WSW 8.1 mph - N/A   Clear
12:55 PM 64.8 °F - 41.4 °F 42% 29.72 in 10.0 mi West 10.4 mph - N/A   Clear
1:15 PM 64.8 °F - 38.7 °F 38% 29.71 in 10.0 mi WSW 9.2 mph - N/A   Clear
1:37 PM 65.3 °F - 37.2 °F 35% 29.71 in 7.0 mi West 6.9 mph - N/A   Clear
1:56 PM 65.3 °F - 40.1 °F 40% 29.71 in 10.0 mi WSW 9.2 mph - N/A   Clear
2:15 PM 66.4 °F - 37.4 °F 34% 29.70 in 7.0 mi West 8.1 mph - N/A   Clear
2:16 PM 66.4 °F - 37.9 °F 35% 29.70 in 7.0 mi West 8.1 mph - N/A   Clear
2:57 PM 66.4 °F - 36.3 °F 33% 29.69 in 7.0 mi West 12.7 mph 26.5 mph N/A   Clear
3:15 PM 65.8 °F - 34.2 °F 31% 29.69 in 10.0 mi West 12.7 mph - N/A   Clear
3:35 PM 65.7 °F - 35.1 °F 32% 29.69 in 10.0 mi West 11.5 mph 18.4 mph N/A   Clear
3:55 PM 65.1 °F - 32.4 °F 29% 29.69 in 10.0 mi West 15.0 mph - N/A   Clear
3:56 PM 65.1 °F - 32.5 °F 30% 29.69 in 10.0 mi West 13.8 mph - N/A   Clear
4:19 PM 64.8 °F - 34.5 °F 33% 29.69 in 10.0 mi WSW 15.0 mph - N/A   Clear
4:36 PM 64.8 °F - 31.6 °F 29% 29.69 in 10.0 mi West 12.7 mph 20.7 mph N/A   Clear
4:56 PM 64.0 °F - 33.3 °F 32% 29.70 in 10.0 mi West 11.5 mph - N/A   Clear
5:15 PM 63.1 °F - 32.2 °F 31% 29.70 in 10.0 mi West 13.8 mph 19.6 mph N/A   Clear
5:35 PM 61.5 °F - 32.7 °F 34% 29.71 in 10.0 mi West 9.2 mph - N/A   Clear
5:39 PM 61.3 °F - 32.7 °F 34% 29.71 in 10.0 mi West 12.7 mph - N/A   Clear
5:57 PM 59.2 °F - 34.2 °F 39% 29.71 in 10.0 mi West 8.1 mph - N/A   Clear
6:16 PM 56.1 °F - 35.2 °F 45% 29.71 in 10.0 mi West 5.8 mph - N/A   Clear
6:35 PM 54.3 °F - 34.0 °F 46% 29.72 in 7.0 mi West 3.5 mph - N/A   Clear
6:36 PM 54.1 °F - 33.8 °F 46% 29.72 in 7.0 mi WSW 3.5 mph - N/A   Clear
6:55 PM 52.2 °F - 34.7 °F 51% 29.72 in 4.0 mi WSW 5.8 mph - N/A   Haze
6:56 PM 52.2 °F - 34.7 °F 51% 29.72 in 3.0 mi WSW 5.8 mph - N/A   Haze
7:18 PM 47.7 °F - 35.8 °F 63% 29.73 in 7.0 mi WSW 5.8 mph - N/A   Clear
7:36 PM 46.2 °F 44.1 °F 35.6 °F 66% 29.74 in 10.0 mi SW 4.6 mph - N/A   Clear
7:55 PM 46.2 °F 43.3 °F 35.6 °F 66% 29.74 in 10.0 mi SW 5.8 mph - N/A   Clear
7:56 PM 45.9 °F 42.9 °F 35.6 °F 67% 29.74 in 10.0 mi SW 5.8 mph - N/A   Clear
8:15 PM 43.3 °F 39.9 °F 35.4 °F 74% 29.75 in 10.0 mi SW 5.8 mph - N/A   Clear
8:16 PM 43.7 °F 40.3 °F 35.4 °F 73% 29.75 in 10.0 mi SW 5.8 mph - N/A   Clear
8:35 PM 44.1 °F 40.8 °F 35.2 °F 71% 29.75 in 7.0 mi SW 5.8 mph - N/A   Clear
8:39 PM 45.1 °F 41.4 °F 35.1 °F 68% 29.75 in 7.0 mi SW 6.9 mph - N/A   Clear
8:58 PM 43.7 °F 42.1 °F 35.1 °F 72% 29.76 in 7.0 mi WSW 3.5 mph - N/A   Clear
9:15 PM 44.6 °F - 34.9 °F 69% 29.75 in 10.0 mi Calm Calm - N/A   Clear
9:35 PM 43.7 °F 40.3 °F 35.2 °F 72% 29.75 in 10.0 mi SSW 5.8 mph - N/A   Clear
9:36 PM 43.2 °F 39.7 °F 35.1 °F 73% 29.75 in 10.0 mi SSW 5.8 mph - N/A   Clear
9:55 PM 41.9 °F 39.0 °F 34.7 °F 76% 29.75 in 10.0 mi SSW 4.6 mph - N/A   Clear
10:18 PM 41.9 °F 39.0 °F 34.9 °F 76% 29.75 in 10.0 mi SSW 4.6 mph - N/A   Clear
10:37 PM 43.3 °F 39.9 °F 35.4 °F 74% 29.76 in 10.0 mi SW 5.8 mph - N/A   Clear
10:56 PM 40.5 °F 38.4 °F 34.5 °F 79% 29.76 in 10.0 mi SSW 3.5 mph - N/A   Clear
11:15 PM 40.1 °F 38.0 °F 34.5 °F 80% 29.76 in 10.0 mi SW 3.5 mph - N/A   Clear
11:16 PM 40.1 °F 38.0 °F 34.3 °F 80% 29.76 in 10.0 mi SW 3.5 mph - N/A   Clear
11:35 PM 39.6 °F 37.4 °F 34.5 °F 82% 29.76 in 10.0 mi SSW 3.5 mph - N/A   Clear
11:57 PM 39.9 °F 37.8 °F 34.9 °F 82% 29.76 in 10.0 mi SW 3.5 mph - N/A   Clear